User: anonymous   Login
Location: Caltech
(34.1382°N, 118.1253°W)
Time: 23:41:24
(UTC-07:00)
Language:

SL-16 R/B - Orbit

View from above orbital plane
View from above orbital plane
View from above satellite
View from above satellite

Ground track
Ground track

The orbit data is extracted from the following two-line orbital elements,

1 28353U 04021B   18142.87580275  .00000321  00000-0  19309-3 0  9997
2 28353  71.0011  86.0694 0003927  23.5086 336.6215 14.14210073720188
Epoch (UTC): 22 May 2018 21:01:09
Eccentricity: 0.0003927
inclination: 71.0011°
perigee height: 842 km
apogee height: 848 km
right ascension of ascending node: 86.0694°
argument of perigee: 23.5086°
revolutions per day: 14.14210073
mean anomaly at epoch: 336.6215°
orbit number at epoch: 72018

The dashed part of the orbit path shows where the satellite is in the earth's shadow,  

DLR